When you browse on this site, cookies collect data to enhance your experience and personalize the content and advertising you see.
Visit our Privacy Policy to learn more. By continuing to use the site, you agree to this use of cookies and data.
  • In Hungary
  • List of Countries
  • For 7 days
  • Water Temperature
  • Satellite Maps
  • Weather Map
  • News
  • Weather Widgets
  • user-avatar
    Login

    Hourly Weather Vancouver

    Today, 19 June, Wednesday

    Time Temperature Precipitation Wind Pressure Humidity
    00:00 +11°C° 0 mm 1 mps 763 mmHg 84%
    01:00 +10°C° 0 mm 1 mps 763 mmHg 87%
    02:00 +10°C° 0 mm 1 mps 763 mmHg 86%
    03:00 +11°C° 0 mm 1 mps 763 mmHg 85%
    04:00 +11°C° 0 mm 1 mps 763 mmHg 84%
    05:00 +12°C° 0 mm 1 mps 763 mmHg 80%
    06:00 +13°C° 0 mm 1 mps 763 mmHg 75%
    07:00 +14°C° 0 mm 1 mps 763 mmHg 70%
    08:00 +14°C° 0 mm 1 mps 763 mmHg 67%
    09:00 +15°C° 0 mm 1 mps 763 mmHg 63%
    10:00 +16°C° 0 mm 1 mps 762 mmHg 60%
    11:00 +17°C° 0 mm 2 mps 762 mmHg 55%
    12:00 +18°C° 0 mm 2 mps 761 mmHg 49%
    13:00 +20°C° 0 mm 3 mps 761 mmHg 44%
    14:00 +20°C° 0 mm 3 mps 761 mmHg 43%
    15:00 +20°C° 0 mm 4 mps 761 mmHg 41%
    16:00 +21°C° 0 mm 5 mps 761 mmHg 40%
    17:00 +19°C° 0 mm 5 mps 761 mmHg 45%
    18:00 +18°C° 0 mm 4 mps 761 mmHg 50%
    19:00 +15°C° 0 mm 4 mps 760 mmHg 55%
    20:00 +13°C° 0 mm 3 mps 761 mmHg 63%
    21:00 +13°C° 0 mm 2 mps 761 mmHg 72%
    22:00 +11°C° 0 mm 1 mps 761 mmHg 80%
    23:00 +11°C° 0 mm 1 mps 761 mmHg 81%

    Tomorrow, 20 June, Thursday

    Time Temperature Precipitation Wind Pressure Humidity
    00:00 +11°C° 0 mm 1 mps 761 mmHg 82%
    01:00 +11°C° 0 mm 1 mps 761 mmHg 83%
    02:00 +11°C° 0.1 mm 1 mps 761 mmHg 84%
    03:00 +11°C° 0.1 mm 1 mps 761 mmHg 86%
    04:00 +10°C° 0.1 mm 1 mps 760 mmHg 87%
    05:00 +11°C° 0.1 mm 1 mps 760 mmHg 84%
    06:00 +12°C° 0.1 mm 1 mps 761 mmHg 82%
    07:00 +13°C° 0.1 mm 1 mps 761 mmHg 79%
    08:00 +14°C° 0.2 mm 1 mps 760 mmHg 75%
    09:00 +15°C° 0.2 mm 1 mps 760 mmHg 71%
    10:00 +16°C° 0.2 mm 1 mps 760 mmHg 67%
    11:00 +17°C° 0.1 mm 2 mps 760 mmHg 62%
    12:00 +18°C° 0.1 mm 2 mps 760 mmHg 58%
    13:00 +18°C° 0.1 mm 2 mps 760 mmHg 53%
    14:00 +19°C° 0 mm 3 mps 759 mmHg 51%
    15:00 +19°C° 0 mm 3 mps 759 mmHg 50%
    16:00 +19°C° 0 mm 3 mps 759 mmHg 48%
    17:00 +18°C° 0 mm 3 mps 759 mmHg 53%
    18:00 +17°C° 0 mm 3 mps 759 mmHg 58%
    19:00 +16°C° 0 mm 3 mps 760 mmHg 63%
    20:00 +14°C° 0 mm 2 mps 760 mmHg 69%
    21:00 +13°C° 0 mm 2 mps 760 mmHg 75%
    22:00 +12°C° 0 mm 1 mps 761 mmHg 80%
    23:00 +12°C° 0 mm 1 mps 761 mmHg 83%

    Day after tomorrow, 21 June, Friday

    Time Temperature Precipitation Wind Pressure Humidity
    00:00 +11°C° 0 mm 1 mps 761 mmHg 85%
    01:00 +11°C° 0 mm 1 mps 761 mmHg 87%
    02:00 +11°C° 0 mm 1 mps 761 mmHg 87%
    03:00 +11°C° 0 mm 1 mps 761 mmHg 87%
    04:00 +10°C° 0 mm 1 mps 761 mmHg 87%
    05:00 +10°C° 0 mm 0 mps 761 mmHg 83%
    06:00 +12°C° 0 mm 0 mps 761 mmHg 79%
    07:00 +13°C° 0 mm 0 mps 762 mmHg 74%
    08:00 +14°C° 0 mm 0 mps 762 mmHg 69%
    09:00 +15°C° 0 mm 0 mps 762 mmHg 63%
    10:00 +19°C° 0 mm 1 mps 761 mmHg 57%
    11:00 +21°C° 0 mm 1 mps 761 mmHg 52%
    12:00 +23°C° 0 mm 1 mps 761 mmHg 47%
    13:00 +25°C° 0 mm 1 mps 761 mmHg 42%
    14:00 +25°C° 0 mm 1 mps 760 mmHg 41%
    15:00 +26°C° 0 mm 1 mps 760 mmHg 40%
    16:00 +26°C° 0 mm 2 mps 760 mmHg 38%
    17:00 +25°C° 0 mm 3 mps 760 mmHg 43%
    18:00 +24°C° 0 mm 3 mps 760 mmHg 49%
    19:00 +21°C° 0 mm 3 mps 760 mmHg 54%
    20:00 +19°C° 0 mm 2 mps 760 mmHg 61%
    21:00 +17°C° 0 mm 2 mps 761 mmHg 69%
    22:00 +15°C° 0 mm 1 mps 761 mmHg 76%
    23:00 +14°C° 0 mm 1 mps 761 mmHg 79%

    22 June, Saturday

    Time Temperature Precipitation Wind Pressure Humidity
    00:00 +13°C° 0 mm 1 mps 761 mmHg 83%
    01:00 +12°C° 0 mm 1 mps 761 mmHg 87%
    02:00 +12°C° 0 mm 1 mps 761 mmHg 88%
    03:00 +12°C° 0 mm 1 mps 761 mmHg 89%
    04:00 +11°C° 0 mm 1 mps 761 mmHg 91%
    05:00 +11°C° 0 mm 0 mps 761 mmHg 86%
    06:00 +13°C° 0 mm 0 mps 762 mmHg 81%
    07:00 +14°C° 0 mm 0 mps 762 mmHg 76%
    08:00 +18°C° 0 mm 1 mps 761 mmHg 68%
    09:00 +19°C° 0 mm 1 mps 761 mmHg 61%
    10:00 +21°C° 0 mm 1 mps 761 mmHg 53%
    11:00 +23°C° 0 mm 1 mps 761 mmHg 47%
    12:00 +24°C° 0 mm 2 mps 761 mmHg 42%
    13:00 +26°C° 0 mm 2 mps 760 mmHg 36%
    14:00 +26°C° 0 mm 3 mps 760 mmHg 39%
    15:00 +26°C° 0 mm 4 mps 760 mmHg 42%
    16:00 +25°C° 0 mm 5 mps 760 mmHg 45%
    17:00 +22°C° 0 mm 4 mps 760 mmHg 52%
    18:00 +21°C° 0 mm 4 mps 760 mmHg 59%
    19:00 +19°C° 0 mm 3 mps 760 mmHg 66%
    20:00 +17°C° 0 mm 3 mps 761 mmHg 70%
    21:00 +16°C° 0 mm 2 mps 761 mmHg 74%
    22:00 +15°C° 0 mm 2 mps 761 mmHg 78%
    23:00 +14°C° 0 mm 2 mps 761 mmHg 78%

    23 June, Sunday

    Time Temperature Precipitation Wind Pressure Humidity
    00:00 +14°C° 0 mm 2 mps 761 mmHg 78%
    01:00 +13°C° 0 mm 2 mps 761 mmHg 78%
    02:00 +13°C° 0 mm 2 mps 761 mmHg 77%
    03:00 +13°C° 0 mm 1 mps 761 mmHg 76%
    04:00 +13°C° 0 mm 1 mps 761 mmHg 75%
    05:00 +14°C° 0 mm 1 mps 761 mmHg 73%
    06:00 +14°C° 0 mm 1 mps 761 mmHg 72%
    07:00 +15°C° 0 mm 1 mps 761 mmHg 70%
    08:00 +16°C° 0 mm 1 mps 761 mmHg 65%
    09:00 +16°C° 0 mm 1 mps 761 mmHg 61%
    10:00 +18°C° 0 mm 1 mps 761 mmHg 56%
    11:00 +18°C° 0 mm 2 mps 760 mmHg 55%
    12:00 +18°C° 0 mm 2 mps 760 mmHg 53%
    13:00 +19°C° 0 mm 2 mps 760 mmHg 52%
    14:00 +19°C° 0 mm 2 mps 760 mmHg 52%
    15:00 +19°C° 0 mm 2 mps 760 mmHg 52%
    16:00 +19°C° 0 mm 2 mps 759 mmHg 51%
    17:00 +19°C° 0 mm 2 mps 759 mmHg 54%
    18:00 +18°C° 0 mm 2 mps 759 mmHg 57%
    19:00 +17°C° 0 mm 2 mps 759 mmHg 60%
    20:00 +16°C° 0 mm 2 mps 759 mmHg 67%
    21:00 +14°C° 0 mm 2 mps 759 mmHg 74%
    22:00 +12°C° 0 mm 2 mps 759 mmHg 81%
    23:00 +12°C° 0 mm 1 mps 759 mmHg 81%

    24 June, Monday

    Time Temperature Precipitation Wind Pressure Humidity
    00:00 +12°C° 0 mm 1 mps 759 mmHg 80%
    01:00 +12°C° 0 mm 1 mps 759 mmHg 80%
    02:00 +11°C° 0 mm 0 mps 758 mmHg 80%
    03:00 +11°C° 0 mm 0 mps 758 mmHg 80%
    04:00 +11°C° 0 mm 0 mps 758 mmHg 80%
    05:00 +12°C° 0 mm 0 mps 758 mmHg 77%
    06:00 +13°C° 0 mm 0 mps 758 mmHg 74%
    07:00 +13°C° 0 mm 0 mps 757 mmHg 72%
    08:00 +15°C° 0 mm 1 mps 757 mmHg 69%
    09:00 +16°C° 0 mm 1 mps 757 mmHg 67%
    10:00 +16°C° 0 mm 1 mps 757 mmHg 64%
    11:00 +19°C° 0 mm 1 mps 757 mmHg 60%
    12:00 +20°C° 0 mm 1 mps 756 mmHg 55%
    13:00 +21°C° 0 mm 1 mps 756 mmHg 51%
    14:00 +21°C° 0.1 mm 1 mps 756 mmHg 53%
    15:00 +19°C° 0.1 mm 2 mps 755 mmHg 56%
    16:00 +19°C° 0.1 mm 2 mps 755 mmHg 58%
    17:00 +18°C° 0.1 mm 2 mps 755 mmHg 61%
    18:00 +18°C° 0.1 mm 2 mps 755 mmHg 64%
    19:00 +18°C° 0.1 mm 1 mps 755 mmHg 66%
    20:00 +16°C° 0 mm 1 mps 755 mmHg 71%
    21:00 +14°C° 0 mm 1 mps 756 mmHg 76%
    22:00 +13°C° 0 mm 1 mps 756 mmHg 81%
    23:00 +13°C° 0 mm 1 mps 756 mmHg 81%
    Show more